Preview of NWS' New Version of Forecast
This preview is not operational and should not be used for support decisions.

Regional Weather Roundup (RWR)

Issued by National Weather Service (NWS)

                            
000
ASUS44 KJAN 241410
RWRMS 

MISSISSIPPI HOURLY WEATHER ROUNDUP
NATIONAL WEATHER SERVICE JACKSON MS
900 AM CDT MON JUN 24 2019

NOTE: "FAIR: INDICATES FEW OR NO CLOUDS BELOW 12,000 FEET WITH NO
SIGNIFICANT WEATHER AND/OR OBSTRUCTIONS TO VISIBILITY.

MSZ001>002-007>008-010>013-018>021-025>028-034>036-241500-
NORTHWEST MISSISSIPPI
  
CITY           SKY/WX    TMP DP  RH WIND       PRES   REMARKS
BATESVILLE       N/A     72  70  94 W7        29.86R                  
CLARKSDALE     CLOUDY    72  72 100 SW7G14    29.88S                  
CLEVELAND      FAIR      69  69 100 S9        29.88F                  
GREENWOOD      PTSUNNY   72  69  90 S12       29.85F                  
GREENVILLE       N/A    N/A N/A N/A MISG      29.89R                  
OLIVE BRANCH   CLOUDY    68  68 100 W12       29.87R                  
OXFORD         FAIR      70  70 100 VRB6      29.85R                  
TUNICA           N/A     70  68  94 W7        29.88S                  
WINONA         CLOUDY    70  70 100 S12G18    29.88R                  
$$

MSZ003>006-009-014>017-022>024-029>033-037>039-241500-
NORTHEAST MISSISSIPPI
  
CITY           SKY/WX    TMP DP  RH WIND       PRES   REMARKS
ABERDEEN       FAIR      72  72 100 SE5       29.86F                  
COLUMBUS AFB   FAIR      74  71  91 SE5       29.85F                  
CORINTH        CLOUDY    73  70  88 S9        29.81R                  
GOLDN TRIANGLE FAIR      74  71  91 SE9       29.86F                  
STARKVILLE       N/A     72  70  94 S7        29.87F                  
TUPELO         PTSUNNY   74  71  91 S10       29.82S                  
$$

MSZ040-058-241500-
CENTRAL MISSISSIPPI
  
CITY           SKY/WX    TMP DP  RH WIND       PRES   REMARKS
JACKSON INTL   PTSUNNY   73  67  81 SW10      29.96R                  
JACKSON HAWKNS FAIR      72  68  87 SW7       29.96S                  
MADISON        FAIR      70  70 100 SW8       29.95S                  
MERIDIAN KEY   FAIR      77  72  84 S6        29.93R                  
MERIDIAN NAS   CLOUDY    78  71  79 VRB6      29.91S                  
RAYMOND        FAIR      73  72  94 VRB5G13   29.95F                  
VICKSBURG VKS  SUNNY     73  70  88 S13       29.95F                  
$$

MSZ059>079-241500-
SOUTH MISSISSIPPI
  
CITY           SKY/WX    TMP DP  RH WIND       PRES   REMARKS
BROOKHAVEN     FAIR      72  66  83 E8        30.03R                  
HATTIESBURG    FAIR      76  69  79 VRB6      29.99R                  
LAUREL         CLOUDY    75  71  87 W7        29.98R                  
MCCOMB         FAIR      71  67  87 W6        30.03R                  
NATCHEZ        NOT AVBL                                               
PINE BELT      FAIR      75  70  84 VRB5      29.99S                  
$$

MSZ080>082-241500-
COASTAL MISSISSIPPI
  
CITY           SKY/WX    TMP DP  RH WIND       PRES   REMARKS
BAY ST LOUIS   MOSUNNY   75  70  83 CALM      30.00S                  
BILOXI         PTSUNNY   75  72  91 CALM      30.00R                  
PASCAGOULA     CLOUDY    87  76  69 SW7G20    29.99S HX  97           
GULFPORT       PTSUNNY   76  71  85 W5        29.99F                  
$$

LAZ007>009-015>016-023>026-241500-
NORTHEAST LOUISIANA
  
CITY           SKY/WX    TMP DP  RH WIND       PRES   REMARKS
BASTROP        CLOUDY    68  68  99 S10G16    29.91S                  
TALLULAH/VBURG FAIR      72  67  84 S8        29.93F                  
VIDALIA        FAIR      70  67  90 S8        30.00F                  
$$